Florala, AL

3:50 AM CDT on July 25, 2017 (GMT -0500)
Florala

Weather History for K0J4 - December, 2013

Change the Weather History Date:

Tuesday, December 24, 2013

  Actual Average (KCEW) Record (KCEW)
Temperature  
Mean Temperature 42 °F -  
Max Temperature 52 °F 59 °F 81 °F (2015)
Min Temperature 32 °F 37 °F 9 °F (1989)
Degree Days  
Heating Degree Days 23    
Moisture  
Dew Point 28 °F    
Average Humidity 67    
Maximum Humidity 92    
Minimum Humidity 38    
Precipitation  
Precipitation 0.00 in - - ()
Sea Level Pressure  
Sea Level Pressure 30.40 in    
Wind  
Wind Speed 6 mph (North)    
Max Wind Speed 12 mph    
Max Gust Speed 18 mph    
Visibility 10 miles    
Events      
Averages and records for this station are not official NWS values.
T = Trace of Precipitation, MM = Missing Value Source: NWS Daily Summary

Daily Weather History Graph

Daily Weather History Graph

Search for Another Location

Airport or City:

Trip Planner

Search our weather history database for the weather conditions in past years. The results will help you decide how hot, cold, wet, or windy it might be!

Date:

Astronomy

Dec. 24, 2013 Rise Set
Actual Time 6:40 AM CST 4:49 PM CST
Civil Twilight 6:14 AM CST 5:15 PM CST
Nautical Twilight 5:44 AM CST 5:46 PM CST
Astronomical Twilight 5:14 AM CST 6:15 PM CST
Moon 11:30 PM CST (12/24) 10:59 AM CST (12/24)
Length of Visible Light 11h 01m
Length of Day
10h 08m
Waning Gibbous, 58% of the Moon is Illuminated
Dec 24
Waning Gibbous
Dec 25
Last Quarter
Jan 1
New
Jan 7
First Quarter
Jan 15
Full

Hourly Weather History & Observations

Time (CST) Temp. Windchill Dew Point Humidity Pressure Visibility Wind Dir Wind Speed Gust Speed Precip Events Conditions
12:11 AM 39.2 °F 34.2 °F 32.0 °F 75% 30.36 in 10.0 mi North 6.9 mph - N/A   Scattered Clouds
12:58 AM 37.9 °F 35.5 °F 32.0 °F 79% 30.37 in 10.0 mi North 3.5 mph - N/A   Partly Cloudy
1:58 AM 37.0 °F 32.4 °F 32.0 °F 82% 30.37 in 10.0 mi North 5.8 mph - N/A   Clear
2:58 AM 36.0 °F 31.1 °F 30.9 °F 82% 30.38 in 10.0 mi North 5.8 mph - N/A   Clear
3:58 AM 34.0 °F 28.0 °F 30.0 °F 85% 30.39 in 10.0 mi North 6.9 mph - N/A   Clear
4:58 AM 33.1 °F 28.7 °F 30.0 °F 89% 30.39 in 10.0 mi North 4.6 mph - N/A   Clear
5:58 AM 32.0 °F 27.5 °F 30.0 °F 92% 30.42 in 10.0 mi North 4.6 mph - N/A   Clear
6:58 AM 32.0 °F 27.5 °F 28.9 °F 88% 30.44 in 10.0 mi North 4.6 mph - N/A   Clear
7:58 AM 35.1 °F 28.6 °F 30.0 °F 82% 30.46 in 10.0 mi North 8.1 mph - N/A   Clear
8:58 AM 39.9 °F 32.9 °F 28.9 °F 65% 30.48 in 10.0 mi North 11.5 mph 18.4 mph N/A   Clear
9:58 AM 45.0 °F 39.7 °F 28.0 °F 52% 30.47 in 10.0 mi North 10.4 mph - N/A   Clear
10:58 AM 46.9 °F - 27.0 °F 46% 30.45 in 10.0 mi NNE 11.5 mph - N/A   Clear
11:58 AM 50.0 °F - 28.0 °F 43% 30.41 in 10.0 mi North 11.5 mph - N/A   Clear
12:58 PM 52.0 °F - 28.0 °F 40% 30.39 in 10.0 mi North 9.2 mph - N/A   Clear
1:58 PM 52.0 °F - 28.9 °F 41% 30.37 in 10.0 mi North 8.1 mph - N/A   Clear
2:58 PM 51.1 °F - 26.1 °F 38% 30.37 in 10.0 mi North 8.1 mph 18.4 mph N/A   Clear
3:58 PM 48.9 °F - 25.0 °F 39% 30.38 in 10.0 mi North 8.1 mph 16.1 mph N/A   Clear
4:58 PM 44.1 °F 41.5 °F 28.0 °F 53% 30.38 in 10.0 mi North 4.6 mph - N/A   Clear
5:58 PM 41.0 °F 38.0 °F 28.0 °F 60% 30.38 in 10.0 mi North 4.6 mph - N/A   Clear
6:58 PM 37.9 °F 34.4 °F 28.0 °F 68% 30.39 in 10.0 mi North 4.6 mph - N/A   Clear
7:58 PM 37.0 °F 33.3 °F 26.1 °F 65% 30.39 in 10.0 mi North 4.6 mph - N/A   Clear
8:58 PM 32.0 °F - 28.0 °F 85% 30.41 in 10.0 mi Calm Calm - N/A   Clear
9:58 PM 35.1 °F 31.0 °F 26.1 °F 70% 30.40 in 10.0 mi NNW 4.6 mph - N/A   Clear
10:58 PM 33.1 °F 28.7 °F 25.0 °F 72% 30.40 in 10.0 mi NNW 4.6 mph - N/A   Clear
11:58 PM 32.0 °F 28.7 °F 25.0 °F 75% 30.39 in 10.0 mi North 3.5 mph - N/A   Clear